This is the latest recevied weather packets stored in our database for station/object W0WC. If no packets are shown the sender has not sent any weather packets the latest 10 day(s).
| Time | Temp. | Humidity | Pressure | Rain* | Wind** | Luminosity | Snow |
|---|---|---|---|---|---|---|---|
| 1777419216 | 12.78° C | 93% | 1013.1 hPa | 0 mm | - | 22 W/m² | - |
| 1777418912 | 12.78° C | 93% | 1012.8 hPa | 0 mm | - | 18 W/m² | - |
| 1777418608 | 12.78° C | 93% | 1012.9 hPa | 0 mm | - | 21 W/m² | - |
| 1777418304 | 12.78° C | 93% | 1012.7 hPa | 0 mm | - | 21 W/m² | - |
| 1777418000 | 13.33° C | 93% | 1012.5 hPa | 0 mm | - | 28 W/m² | - |
| 1777417696 | 13.33° C | 93% | 1012.5 hPa | 0 mm | - | 39 W/m² | - |
| 1777417392 | 13.33° C | 94% | 1012.3 hPa | 0 mm | - | 35 W/m² | - |
| 1777417089 | 13.33° C | 94% | 1012.2 hPa | 0 mm | - | 49 W/m² | - |
| 1777416784 | 13.33° C | 94% | 1012.2 hPa | 0 mm | - | 49 W/m² | - |
| 1777416479 | 13.33° C | 94% | 1012.2 hPa | 0 mm | - | 41 W/m² | - |
| 1777416176 | 13.33° C | 94% | 1011.9 hPa | 0 mm | - | 49 W/m² | - |
| 1777415875 | 13.33° C | 94% | 1011.7 hPa | 0 mm | - | 53 W/m² | - |
| 1777415572 | 13.33° C | 94% | 1011.7 hPa | 0 mm | - | 44 W/m² | - |
| 1777415267 | 13.33° C | 94% | 1011.6 hPa | 0 mm | - | 67 W/m² | - |
| 1777414962 | 13.33° C | 94% | 1011.5 hPa | 0 mm | - | 65 W/m² | - |
| 1777414657 | 13.33° C | 94% | 1011.5 hPa | 0 mm | - | 31 W/m² | - |
| 1777414352 | 13.33° C | 94% | 1011.8 hPa | 0 mm | - | 50 W/m² | - |
| 1777414047 | 13.33° C | 94% | 1011.6 hPa | 0 mm | - | 51 W/m² | - |
| 1777413747 | 13.33° C | 93% | 1011.8 hPa | 0 mm | - | 54 W/m² | - |
| 1777413443 | 13.33° C | 94% | 1011.3 hPa | 0 mm | - | 105 W/m² | - |
| 1777413139 | 13.33° C | 94% | 1011.4 hPa | 0 mm | - | 128 W/m² | - |
| 1777412834 | 13.33° C | 94% | 1011.4 hPa | 0 mm | - | 199 W/m² | - |
| 1777412534 | 13.33° C | 94% | 1011.6 hPa | 0 mm | - | 58 W/m² | - |
| 1777412231 | 13.33° C | 94% | 1011.7 hPa | 0 mm | - | 45 W/m² | - |
| 1777411928 | 13.33° C | 94% | 1011.9 hPa | 0 mm | - | 63 W/m² | - |
* Rain latest hour (hover to see other rain measurements)
** Current wind speed in m/s (hover to see current wind gust speed)